Mukilteo, WA

4:08 AM PST on February 25, 2017 (GMT -0800)
Snohomish County

Weather History for KPAE - February, 2014

Change the Weather History Date:

Tuesday, February 18, 2014

  Actual Average Record
Temperature  
Mean Temperature 42 °F -  
Max Temperature 46 °F 48 °F 57 °F (1950)
Min Temperature 36 °F 36 °F 20 °F (1990)
Degree Days  
Heating Degree Days 24    
Moisture  
Dew Point 38 °F    
Average Humidity 85    
Maximum Humidity 90    
Minimum Humidity 71    
Precipitation  
Precipitation 0.31 in - - ()
Sea Level Pressure  
Sea Level Pressure 29.74 in    
Wind  
Wind Speed 14 mph (South)    
Max Wind Speed 30 mph    
Max Gust Speed 41 mph    
Visibility 10 miles    
Events Rain , Thunderstorm    
Averages and records for this station are not official NWS values.
T = Trace of Precipitation, MM = Missing Value Source: NWS Daily Summary

Daily Weather History Graph

Daily Weather History Graph

Search for Another Location

Airport or City:

Trip Planner

Search our weather history database for the weather conditions in past years. The results will help you decide how hot, cold, wet, or windy it might be!

Date:

Astronomy

Feb. 18, 2014 Rise Set
Actual Time 7:09 AM PST 5:36 PM PST
Civil Twilight 6:38 AM PST 6:08 PM PST
Nautical Twilight 6:02 AM PST 6:44 PM PST
Astronomical Twilight 5:26 AM PST 7:20 PM PST
Moon 9:56 PM PST (2/18) 8:26 AM PST (2/18)
Length of Visible Light 11h 30m
Length of Day
10h 26m
Waning Gibbous, 86% of the Moon is Illuminated
Feb 18
Waning Gibbous
Feb 22
Last Quarter
Mar 1
New
Mar 8
First Quarter
Mar 16
Full

Hourly Weather History & Observations

Time (PST) Temp. Windchill Dew Point Humidity Pressure Visibility Wind Dir Wind Speed Gust Speed Precip Events Conditions
12:02 AM 41.0 °F 34.7 °F 37.0 °F 86% 29.92 in 10.0 mi South 10.4 mph - N/A   Mostly Cloudy
12:28 AM 39.9 °F 33.9 °F 37.0 °F 89% 29.92 in 10.0 mi South 9.2 mph - N/A   Overcast
12:38 AM 41.0 °F 33.5 °F 37.0 °F 86% 29.92 in 10.0 mi South 13.8 mph - N/A   Overcast
12:53 AM 41.0 °F 33.5 °F 37.0 °F 86% 29.93 in 10.0 mi South 13.8 mph - N/A   Overcast
1:03 AM 41.0 °F 34.7 °F 37.0 °F 86% 29.92 in 10.0 mi South 10.4 mph - N/A   Overcast
1:53 AM 39.9 °F 32.1 °F 37.0 °F 89% 29.94 in 10.0 mi South 13.8 mph - N/A   Mostly Cloudy
2:53 AM 39.9 °F 32.1 °F 37.0 °F 89% 29.93 in 10.0 mi South 13.8 mph - N/A   Mostly Cloudy
3:03 AM 39.9 °F 32.1 °F 37.0 °F 89% 29.91 in 10.0 mi South 13.8 mph 24.2 mph N/A   Scattered Clouds
3:53 AM 41.0 °F 32.8 °F 37.0 °F 86% 29.91 in 10.0 mi South 16.1 mph - N/A   Partly Cloudy
4:53 AM 41.0 °F 32.8 °F 37.0 °F 86% 29.90 in 10.0 mi South 16.1 mph 24.2 mph N/A   Overcast
5:53 AM 42.1 °F 33.9 °F 37.9 °F 85% 29.88 in 10.0 mi South 17.3 mph 26.5 mph 0.00 in Rain Light Rain
6:53 AM 42.1 °F 34.2 °F 39.0 °F 89% 29.85 in 8.0 mi South 16.1 mph - 0.02 in Rain Light Rain
7:53 AM 43.0 °F 35.7 °F 37.9 °F 82% 29.79 in 8.0 mi SSE 15.0 mph - 0.02 in Rain Light Rain
8:53 AM 45.0 °F 37.1 °F 36.0 °F 71% 29.77 in 8.0 mi SSE 19.6 mph 34.5 mph 0.01 in Rain Light Rain
9:53 AM 44.1 °F 36.5 °F 37.9 °F 79% 29.72 in 10.0 mi South 17.3 mph 23.0 mph 0.01 in Rain Light Rain
10:53 AM 43.0 °F 34.5 °F 39.9 °F 89% 29.68 in 8.0 mi South 19.6 mph 27.6 mph 0.06 in Rain Light Rain
11:45 AM 44.1 °F 37.7 °F 39.9 °F 85% 29.62 in 8.0 mi SSE 12.7 mph 24.2 mph 0.05 in Rain Light Rain
11:53 AM 44.1 °F 37.4 °F 41.0 °F 89% 29.62 in 9.0 mi SSE 13.8 mph 23.0 mph 0.06 in Rain Light Rain
12:33 PM 45.0 °F 37.1 °F 41.0 °F 86% 29.56 in 10.0 mi South 19.6 mph 28.8 mph 0.00 in Rain Light Rain
12:42 PM 45.0 °F 35.2 °F 42.1 °F 90% 29.56 in 10.0 mi South 29.9 mph 36.8 mph 0.00 in Rain Light Rain
12:53 PM 46.0 °F 36.9 °F 42.1 °F 86% 29.57 in 10.0 mi South 28.8 mph 41.4 mph 0.00 in Rain Light Rain
1:40 PM 45.0 °F 36.2 °F 42.1 °F 90% 29.55 in 10.0 mi South 24.2 mph 35.7 mph 0.00 in Rain Light Rain
1:53 PM 45.0 °F 36.2 °F 42.1 °F 90% 29.54 in 8.0 mi South 24.2 mph 34.5 mph 0.01 in Rain Light Rain
2:01 PM 45.0 °F 36.2 °F 42.1 °F 90% 29.52 in 10.0 mi South 24.2 mph 36.8 mph 0.00 in Rain Light Rain
2:30 PM 45.0 °F 36.2 °F 42.1 °F 90% 29.52 in 10.0 mi South 24.2 mph 32.2 mph 0.00 in   Overcast
2:53 PM 46.0 °F 37.8 °F 43.0 °F 89% 29.54 in 10.0 mi SSW 23.0 mph 32.2 mph 0.00 in   Overcast
3:33 PM 46.0 °F 38.0 °F 41.0 °F 83% 29.57 in 10.0 mi SSW 21.9 mph 32.2 mph N/A   Mostly Cloudy
3:53 PM 45.0 °F 38.9 °F 41.0 °F 86% 29.60 in 10.0 mi WSW 12.7 mph 24.2 mph N/A   Mostly Cloudy
4:53 PM 45.0 °F 41.2 °F 41.0 °F 86% 29.63 in 10.0 mi WNW 6.9 mph - 0.00 in   Overcast
5:17 PM 45.0 °F 37.9 °F 37.0 °F 74% 29.63 in 10.0 mi SSW 16.1 mph 20.7 mph N/A   Mostly Cloudy
5:37 PM 45.0 °F 39.7 °F 36.0 °F 71% 29.65 in 10.0 mi SW 10.4 mph - N/A Thunderstorm Overcast
5:53 PM 44.1 °F 42.5 °F 37.0 °F 76% 29.67 in 10.0 mi Variable 3.5 mph - 0.00 in Rain Light Rain
6:53 PM 41.0 °F 37.1 °F 37.0 °F 86% 29.73 in 10.0 mi WSW 5.8 mph - 0.05 in   Overcast
7:25 PM 41.0 °F 35.8 °F 36.0 °F 82% 29.73 in 10.0 mi WSW 8.1 mph - 0.01 in Rain Light Rain
7:53 PM 41.0 °F 35.8 °F 35.1 °F 79% 29.77 in 10.0 mi SW 8.1 mph - 0.01 in Rain Light Rain
8:53 PM 37.9 °F 32.1 °F 34.0 °F 86% 29.81 in 10.0 mi South 8.1 mph - 0.05 in Rain Light Rain
9:00 PM 39.0 °F 34.0 °F 34.0 °F 82% 29.80 in 10.0 mi SSW 6.9 mph - 0.00 in   Overcast
9:50 PM 37.4 °F 31.4 °F 33.8 °F 87% 29.82 in 10.0 mi SSW 8.1 mph - 0.01 in   Mostly Cloudy
9:53 PM 37.9 °F 32.7 °F 34.0 °F 86% 29.84 in 10.0 mi SSW 6.9 mph - 0.01 in   Mostly Cloudy
11:53 PM 36.0 °F 28.5 °F 33.1 °F 89% 29.85 in 10.0 mi SSW 10.4 mph - N/A   Clear